FW7421 Weather Reports


time (UTC)temp
C
wind
direction
speed
KPH
gust
KPH
rain 1hr
cm
rain 24hr
cm
rain mn
cm
humidity
%
barometer
mb
20260508184542 20 115 8.0 14.5 0.00 0.00 0.00 46 1017.0
20260508183041 20 87 3.2 9.7 0.00 0.00 0.00 48 1017.2
20260508181552 20 198 6.4 16.1 0.00 0.00 0.00 45 1017.6
20260508180055 20 222 8.0 24.1 0.00 0.00 0.00 44 1017.6
20260508174548 20 209 8.0 17.7 0.00 0.00 0.00 42 1017.7
20260508173041 20 227 11.3 17.7 0.00 0.00 0.00 39 1018.0
20260508171542 20 225 4.8 14.5 0.00 0.00 0.00 41 1018.1
20260508170043 18 94 6.4 19.3 0.00 0.00 0.00 41 1018.4
20260508164543 20 147 4.8 9.7 0.00 0.00 0.00 37 1018.7
20260508163041 19 294 9.7 16.1 0.00 0.00 0.00 38 1018.9
20260508161545 19 197 8.0 16.1 0.00 0.00 0.00 41 1019.1
20260508160044 19 355 4.8 14.5 0.00 0.00 0.00 44 1019.5
20260508154541 18 34 4.8 14.5 0.00 0.00 0.00 45 1019.6
20260508153042 18 231 4.8 14.5 0.00 0.00 0.00 47 1019.6
20260508151546 18 44 3.2 16.1 0.00 0.00 0.00 47 1019.7
20260508150041 18 300 1.6 12.9 0.00 0.00 0.00 49 1019.8
20260508144547 17 186 3.2 12.9 0.00 0.00 0.00 46 1019.8
20260508143043 17 24 3.2 11.3 0.00 0.00 0.00 49 1019.9
20260508141543 16 330 1.6 11.3 0.00 0.00 0.00 51 1019.9
20260508140043 16 169 1.6 9.7 0.00 0.00 0.00 53 1020.0
20260508134544 16 115 1.6 6.4 0.00 0.00 0.00 57 1019.9
20260508133048 15 238 0.0 6.4 0.00 0.00 0.00 62 1020.0
20260508131547 15 234 3.2 11.3 0.00 0.00 0.00 66 1020.0
20260508130045 15 273 1.6 4.8 0.00 0.00 0.00 65 1019.6
20260508124542 14 261 1.6 4.8 0.00 0.08 0.00 68 1019.5
20260508123048 13 260 1.6 4.8 0.00 0.08 0.00 71 1019.5
20260508121543 11 261 1.6 4.8 0.00 0.08 0.00 77 1019.5
20260508120043 10 280 1.6 4.8 0.00 0.08 0.00 85 1019.3
20260508114602 8 360 1.6 4.8 0.00 0.33 0.00 90 1019.2
20260508113045 7 292 1.6 4.8 0.00 0.33 0.00 92 1018.8
20260508111557 7 0 0.0 3.2 0.00 0.33 0.00 91 1018.4
20260508110041 6 290 0.0 3.2 0.00 0.33 0.00 91 1018.4
20260508104541 6 0 0.0 3.2 0.00 0.38 0.00 91 1018.1
20260508103041 6 290 1.6 4.8 0.00 0.38 0.00 90 1017.8
20260508101544 7 0 0.0 3.2 0.00 0.38 0.00 90 1017.2
20260508100043 7 290 1.6 4.8 0.00 0.38 0.00 90 1017.3
20260508094545 7 292 0.0 3.2 0.00 0.38 0.00 90 1017.2
20260508093041 7 0 0.0 1.6 0.00 0.38 0.00 90 1017.2
20260508091551 7 0 0.0 1.6 0.00 0.38 0.00 90 1017.3
20260508090052 7 0 0.0 3.2 0.00 0.38 0.00 89 1017.1
20260508084542 7 292 0.0 4.8 0.00 0.38 0.00 88 1016.9
20260508083049 8 293 3.2 4.8 0.00 0.38 0.00 88 1016.9
20260508081547 8 0 0.0 4.8 0.00 0.38 0.00 88 1016.8
20260508080041 8 0 0.0 3.2 0.00 0.38 0.00 88 1016.7
20260508074544 8 0 0.0 4.8 0.00 0.38 0.00 88 1016.5
20260508073043 8 0 0.0 4.8 0.00 0.38 0.00 86 1016.5
20260508071545 8 290 0.0 3.2 0.00 0.38 0.00 86 1016.4
20260508070044 9 290 1.6 4.8 0.00 0.38 0.00 86 1016.4
20260508064543 9 0 0.0 0.0 0.00 0.41 0.00 86 1016.1
20260508063044 9 0 0.0 0.0 0.00 0.41 0.00 86 1016.1
20260508061541 9 0 0.0 3.2 0.00 0.41 0.00 85 1016.0
20260508060042 10 0 0.0 0.0 0.00 0.41 0.00 85 1016.1
20260508054547 10 63 0.0 1.6 0.00 0.53 0.00 83 1016.1
20260508053055 10 0 0.0 3.2 0.00 0.53 0.00 82 1016.0
20260508051547 10 0 0.0 0.0 0.00 0.53 0.00 82 1016.0
20260508050042 11 0 0.0 3.2 0.00 0.53 0.00 80 1015.9
20260508044541 11 0 0.0 3.2 0.00 0.61 0.00 80 1015.7
20260508043049 11 68 0.0 3.2 0.00 0.61 0.00 78 1015.6
20260508041547 11 0 0.0 3.2 0.00 0.61 0.00 76 1015.6
20260508040045 11 0 0.0 1.6 0.00 0.61 0.00 76 1015.7
20260508034547 11 0 0.0 3.2 0.00 0.61 0.61 76 1015.6
20260508033042 12 0 0.0 0.0 0.00 0.61 0.61 74 1015.7
20260508031541 12 0 0.0 4.8 0.00 0.61 0.61 71 1015.6
20260508024929 13 74 0.0 12.9 0.00 0.66 0.61 69 1015.3
20260508023042 13 42 4.8 16.1 0.00 0.66 0.61 67 1014.9
20260508021547 13 325 3.2 8.0 0.00 0.66 0.61 67 1014.9
20260508020042 13 355 1.6 14.5 0.00 0.66 0.61 68 1014.8
20260508014541 13 360 1.6 6.4 0.00 0.79 0.61 66 1014.5
20260508013047 14 0 0.0 6.4 0.00 0.79 0.61 66 1014.2
20260508011543 14 0 0.0 1.6 0.00 0.79 0.61 64 1014.2
20260508010042 15 22 0.0 6.4 0.00 0.79 0.61 64 1014.0
20260508004543 15 312 3.2 17.7 0.00 1.04 0.61 60 1013.7
20260508003043 15 18 6.4 20.9 0.00 1.04 0.61 60 1013.4
20260508001542 15 313 3.2 12.9 0.00 1.04 0.61 62 1013.2
20260508000040 16 339 6.4 16.1 0.00 1.04 0.61 61 1013.2
20260507234549 17 322 3.2 16.1 0.00 1.09 0.61 62 1013.2
20260507233041 17 330 6.4 22.5 0.00 1.09 0.61 60 1012.7
20260507231551 18 286 8.0 17.7 0.00 1.09 0.61 58 1012.6
20260507230040 19 309 4.8 16.1 0.00 1.09 0.61 60 1012.4
20260507224547 19 321 6.4 19.3 0.00 1.09 0.61 60 1012.1
20260507223043 20 248 9.7 27.4 0.00 1.09 0.61 59 1011.7
20260507221542 20 308 4.8 22.5 0.00 1.09 0.61 59 1011.4
20260507220041 20 343 8.0 22.5 0.00 1.09 0.61 58 1010.8
20260507214541 21 292 11.3 22.5 0.00 1.09 0.61 57 1010.6
20260507213046 21 323 11.3 20.9 0.00 1.09 0.61 57 1010.5
20260507211544 21 293 6.4 20.9 0.00 1.09 0.61 59 1010.2
20260507210045 22 298 11.3 25.7 0.00 1.09 0.61 57 1010.1
20260507204545 23 297 11.3 19.3 0.00 1.09 0.61 56 1009.9
20260507203044 24 22 8.0 22.5 0.00 1.09 0.61 54 1009.7
20260507201541 24 289 14.5 27.4 0.00 1.09 0.61 53 1009.7
20260507200047 25 259 9.7 22.5 0.00 1.09 0.61 54 1009.5
20260507194544 25 238 9.7 19.3 0.00 1.09 0.61 53 1009.4
20260507193050 25 250 16.1 27.4 0.00 1.09 0.61 52 1009.5
20260507191542 25 279 12.9 25.7 0.00 1.09 0.61 54 1009.5
20260507190041 25 234 16.1 30.6 0.00 1.09 0.61 55 1009.5